Location: ČR
(50.0000°N, 15.0000°E)
Time: 13:58:59
(UTC+00:00)

O/OREOS (USA 219) - Pass Details

Date: 14 December 2021
Orbit: 621 x 646 km, 72.0° (Epoch: 22 May)

Event Time Altitude Azimuth Distance (km) Brightness Sun altitude
Rises 17:28:51 0° 332° (NNW) 2,960 ? -22.9°
Reaches altitude 10° 17:31:07 10° 333° (NNW) 2,049 ? -23.3°
Maximum altitude 17:35:45 89° 38° (NE) 652 ? -24.0°
Enters shadow 17:36:14 72° 152° (SSE) 684 ? -24.1°
